Tracking 19832 objects as of 25-Aug-2019
HD Live streaming from Space Station
objects crossing your sky now

THORAD DELTA 1 DEB

Track THORAD DELTA 1 DEB now!
10-day predictions


NORAD ID: 10393
Int'l Code: 1974-089EJ
Perigee: 1,456.7 km
Apogee: 1,708.1 km
Inclination: 101.6 °
Period: 117.6 minutes
Semi major axis: 7953 km
RCS: 0.0302 m2 (small)
Launch date: November 15, 1974
Source: United States (US)
Launch site: AIR FORCE WESTERN TEST RANGE (AFWTR)

Note: This is SATELLITE DEBRIS
aabbcc
Your satellite tracking list
Your tracking list is empty




NASA's NSSDC Master Catalog

Two Line Element Set (TLE):
1 10393U 74089EJ  19236.72686679 -.00000042 +00000-0 -89616-5 0  9999
2 10393 101.6321 327.1346 0158061 190.9777 325.6231 12.23977060005542
Source of the keplerian elements: AFSPC